sat.trackr.live / text

‹ back to catalog

STARLINK-4276

NORAD 53179 · 2022-083AZ

PAYLOAD ACTIVE UNKNOWN

§ Identity

Operator
Country
US
Launch date
2022-07-17
Launch site
AFETR
Launch vehicle
Mass (kg)
RCS (m²)

Purposes: comms

External: N2YO · Heavens-Above · Gunter

§ Orbital elements

Epoch: 2026-05-24T23:37:06.031776Z

Period
95.44 min
Inclination
53.2134°
Eccentricity
0.0000846
Mean motion
15.08845744 rev/d
Perigee alt
539.1 km
Apogee alt
540.3 km
Semi-major
6,917.9 km
B*
6.6103e-5
RAAN
141.2193°
Arg perigee
78.0018°
Mean anomaly
282.1068°
Rev number
21,343

§ Raw data

STARLINK-42761 53179U 22083AZ  26144.98409759  .00000765  00000+0  66103-4 0  99952 53179  53.2134 141.2193 0000846  78.0018 282.1068 15.08845744213434

JSON: /api/v1/satellites/53179 · /tle

For live sub-satellite position, see the globe view (requires WebGL).

§ Visibility from observer

Set your observer location to see the next 7 days of passes ≥ 10°. The values pass through the URL so the page stays shareable.

No JS? Fill the form by hand. The geolocation button needs JavaScript.